Retour au catalogue

CZ-2C DEB

ActifPO
NORAD 40289·DEBRIS·🇨🇳 China

Lancé Oct 27, 2014 depuis Jiuquan Satellite Launch Center

Loading…

Prochains Passages (prochaines 24 heures)

TLE

FraisSource: Space-Track

Époque: Sep 14, 2026, 01:01 UTC

1 40289U 14066D   26257.04246081  .00005663  00000-0  71203-3 0  9993
2 40289  98.4835 180.3441 0062106 223.3300 136.3018 14.81159264631420

Suivez CZ-2C DEB en temps réel avec AllMySat

Download on the App Store